[[{"header":{"parameterUnit":"m.s-1","parameterCategory":2,"la1":30.2991,"la2":30.254,"lo1":-89.0895,"lo2":-89.0444,"dy":0.0017,"dx":0.0017,"nx":28,"ny":28,"refTime":"2025-04-02T09:00:00:Z","depth":"0","parameterNumber":2,"parameterNumberName":"U-component_of_CURRENTS"},"data":[0,0,0,0,0,0,0,0,0,0,0,0,0,0,0,0,0,0,0,0,0,0,0,0,0,0,0,0,0,0,0,0,0,0,0,0,0,0,0,0,0,0,0,0,0,0,0,0,0,0,0,0,0,0,0,0,0,0,-0.2511,-0.2511,0,-0.2528,-0.2528,-0.2528,-0.2492,-0.2491,-0.249,-0.2489,-0.2424,-0.2424,-0.2423,0,0,0,0,0,0,0,0,0,0,0,0,0,-0.2443,-0.2444,-0.2511,-0.2511,-0.2512,-0.2528,-0.2528,-0.2528,-0.2492,-0.2491,-0.249,-0.2489,-0.2425,-0.2424,-0.2423,0,0,0,0,0,0,0,0,0,0,0,0,0,-0.2465,-0.2444,-0.2511,-0.2498,-0.2497,-0.2528,-0.2528,-0.2528,-0.2492,-0.2491,-0.2489,-0.2488,-0.2425,-0.2424,-0.2423,-0.2442,0,0,-0.2419,-0.2418,0,0,0,0,0,0,0,0,-0.2463,-0.2467,-0.2499,-0.2499,-0.2498,-0.2509,-0.248,-0.2496,-0.2492,-0.2491,-0.2489,-0.2487,-0.2448,-0.2445,-0.2448,-0.2439,-0.2436,-0.2418,-0.2418,-0.2417,-0.2417,0,0,0,0,0,0,0,-0.2462,-0.2466,-0.2515,-0.25,-0.2499,-0.249,-0.2491,-0.2483,-0.2473,-0.2491,-0.2489,-0.2496,-0.2446,-0.245,-0.2446,-0.2435,-0.2418,-0.2417,-0.2416,-0.2416,-0.2453,-0.2455,0,0,0,0,0,0,-0.2468,-0.2465,-0.2514,-0.2515,-0.248,-0.2493,-0.2494,-0.2504,-0.2475,-0.2471,-0.2497,-0.2494,-0.2452,-0.2448,-0.2444,-0.247,-0.2417,-0.2416,-0.2415,-0.2451,-0.2454,-0.2455,0,0,0,0,0,0,-0.2466,-0.2472,-0.2513,-0.2492,-0.2497,-0.2495,-0.2507,-0.2505,-0.2504,-0.2481,-0.2474,-0.2497,-0.2451,-0.2445,-0.2447,-0.2467,-0.2415,-0.2414,-0.2449,-0.2452,-0.2455,-0.252,0,0,0,0,0,0,-0.2464,-0.2472,-0.2476,-0.2493,-0.2499,-0.2539,-0.2509,-0.2507,-0.2512,-0.2508,-0.2479,-0.2472,-0.245,-0.2449,-0.2445,-0.2464,-0.2413,-0.2447,-0.2451,-0.2454,-0.2515,-0.2524,-0.2532,0,0,0,0,0,-0.2462,-0.2479,-0.2476,-0.2482,-0.2507,-0.2541,-0.2543,-0.2534,-0.2513,-0.2524,-0.2506,-0.2472,-0.2467,-0.245,-0.2445,-0.2464,-0.2445,-0.245,-0.2453,-0.2511,-0.2522,-0.2532,0,0,0,0,0,0,-0.2449,-0.2478,-0.2475,-0.2498,-0.252,-0.2536,-0.2543,-0.2539,-0.2535,-0.2524,-0.2493,-0.2486,-0.2497,-0.2477,-0.2458,-0.2487,-0.2452,-0.2455,-0.2498,-0.2508,-0.2516,-0.2514,-0.2412,0,0,0,0,0,-0.2451,-0.2469,-0.2498,-0.2513,-0.2527,-0.2535,-0.2544,-0.2544,-0.2547,-0.2543,-0.2526,-0.2512,-0.2514,-0.2506,-0.2503,-0.2516,-0.2481,-0.2528,-0.2536,-0.2543,-0.2541,-0.2513,-0.2518,-0.2469,-0.2469,-0.2468,0,0,-0.2448,-0.2467,-0.2474,-0.2512,-0.2523,-0.2558,-0.2536,-0.2558,-0.2581,-0.2537,-0.2551,-0.254,-0.2525,-0.2544,-0.2546,-0.2525,-0.2541,-0.2548,-0.2554,-0.2547,-0.2518,-0.2522,-0.2526,-0.2471,-0.2471,-0.247,0,0,-0.2462,-0.2472,-0.2496,-0.2524,-0.2555,-0.2569,-0.2578,-0.26,-0.2602,-0.2623,-0.2601,-0.2601,-0.2599,-0.2596,-0.2593,-0.2646,-0.2589,-0.2649,-0.2681,-0.2656,-0.2659,-0.2661,-0.2625,-0.2624,-0.2648,-0.2649,-0.2649,0,-0.2455,-0.2492,-0.2508,-0.2547,-0.2569,-0.2577,-0.2614,-0.2631,-0.2648,-0.265,-0.2635,-0.2638,-0.2625,-0.2644,-0.2668,-0.2663,-0.2633,-0.2642,-0.2664,-0.2665,-0.2666,-0.2629,-0.2627,-0.2652,-0.2652,-0.2651,-0.2651,0,-0.2494,-0.2525,-0.2545,-0.2594,-0.2624,-0.2655,-0.269,-0.2708,-0.2706,-0.2714,-0.2727,-0.2715,-0.2709,-0.2718,-0.2709,-0.2723,-0.2694,-0.2678,-0.2632,-0.2675,-0.2634,-0.263,-0.2657,-0.2656,-0.2655,-0.2654,0,0,-0.2466,-0.2555,-0.2557,-0.2586,-0.2649,-0.2674,-0.2723,-0.276,-0.2771,-0.2786,-0.2793,-0.2811,-0.2788,-0.2785,-0.2772,-0.2759,-0.2749,-0.2727,-0.2724,-0.2681,-0.2681,-0.2626,-0.2615,-0.2731,-0.2731,-0.2731,-0.2649,0,-0.2485,-0.2557,-0.2601,-0.266,-0.2698,-0.2733,-0.2774,-0.2807,-0.2818,-0.2829,-0.2824,-0.2825,-0.282,-0.2808,-0.2801,-0.2761,-0.2741,-0.2772,-0.2655,-0.2652,-0.2588,-0.261,-0.254,-0.2458,-0.2645,-0.2644,-0.2643,0,-0.2502,-0.2548,-0.2612,-0.2685,-0.2703,-0.274,-0.2783,-0.2823,-0.2853,-0.2859,-0.2863,-0.2851,-0.285,-0.2828,-0.2777,-0.2794,-0.2746,-0.2711,-0.2707,-0.2626,-0.2589,-0.2447,-0.2443,-0.2438,-0.2637,-0.2637,-0.2638,0,-0.2455,-0.2548,-0.2592,-0.2621,-0.2711,-0.2734,-0.2773,-0.2818,-0.2839,-0.2865,-0.2863,-0.2864,-0.2838,-0.2802,-0.2742,-0.2754,-0.2666,-0.2666,-0.257,-0.2564,-0.2467,-0.2454,-0.2432,-0.2619,-0.262,-0.262,-0.262,0,-0.245,-0.2481,-0.257,-0.2593,-0.2629,-0.2704,-0.2733,-0.2772,-0.2816,-0.2826,-0.2861,-0.2851,-0.2827,-0.2779,-0.2737,-0.2634,-0.2654,-0.2572,-0.254,-0.2489,-0.248,-0.2438,-0.2451,-0.2617,-0.2617,-0.2618,-0.2619,0,-0.2384,-0.2453,-0.2498,-0.2585,-0.2608,-0.2625,-0.2702,-0.2718,-0.2775,-0.2785,-0.2791,-0.2818,-0.2759,-0.2721,-0.2642,-0.2601,-0.2481,-0.248,-0.242,-0.2383,-0.23,-0.2319,-0.2226,-0.2162,-0.2367,-0.2365,-0.2364,0,-0.2356,-0.2374,-0.2458,-0.2472,-0.2506,-0.2551,-0.2578,-0.2671,-0.2693,-0.2754,-0.2746,-0.272,-0.2666,-0.2549,-0.2483,-0.2385,-0.2381,-0.2267,-0.2286,-0.2282,-0.2281,-0.2288,-0.2243,-0.2182,-0.2179,-0.2177,-0.2175,0,-0.2277,-0.2304,-0.2335,-0.2369,-0.24,-0.2437,-0.2488,-0.2505,-0.2602,-0.2615,-0.2611,-0.2576,-0.2501,-0.2381,-0.228,-0.2219,-0.2227,-0.2215,-0.2223,-0.2145,-0.2137,-0.2064,-0.2252,-0.2153,-0.2156,-0.2157,-0.2158,-0.2159,-0.2189,-0.2183,-0.222,-0.2238,-0.2272,-0.2285,-0.2266,-0.2335,-0.2347,-0.2339,-0.2421,-0.2341,-0.2312,-0.2165,-0.2109,-0.2022,-0.205,-0.1983,-0.2007,-0.2016,-0.1956,-0.2096,-0.196,-0.1961,-0.1962,-0.1962,-0.1963,0,-0.2064,-0.207,-0.2084,-0.2098,-0.2072,-0.2141,-0.2167,-0.2119,-0.2079,-0.2131,-0.2107,-0.2082,-0.1991,-0.1978,-0.1921,-0.1848,-0.1809,-0.1815,-0.1824,-0.1786,-0.1912,-0.1907,-0.1737,-0.1737,-0.1737,-0.1737,-0.1737,-0.1737,-0.1997,-0.1958,-0.1969,-0.1882,-0.1884,-0.1798,-0.1775,-0.1732,-0.1734,-0.1672,-0.1682,-0.1717,-0.1763,-0.1934,-0.1862,-0.1786,-0.1744,-0.1694,-0.1699,-0.1828,-0.1847,-0.1865,-0.1864,-0.1688,-0.1688,-0.1524,-0.1523,-0.1522]},{"header":{"parameterUnit":"m.s-1","parameterCategory":2,"la1":30.2991,"la2":30.254,"lo1":-89.0895,"lo2":-89.0444,"dy":0.0017,"dx":0.0017,"nx":28,"ny":28,"refTime":"2025-04-02T09:00:00:Z","depth":"0","parameterNumber":3,"parameterNumberName":"V-component_of_CURRENTS"},"data":[0,0,0,0,0,0,0,0,0,0,0,0,0,0,0,0,0,0,0,0,0,0,0,0,0,0,0,0,0,0,0,0,0,0,0,0,0,0,0,0,0,0,0,0,0,0,0,0,0,0,0,0,0,0,0,0,0,0,-0.0223,-0.0223,0,-0.0133,-0.0131,-0.013,-0.0074,-0.0074,-0.0074,-0.0074,0.0048,0.0051,0.0054,0,0,0,0,0,0,0,0,0,0,0,0,0,-0.0284,-0.0284,-0.0224,-0.0222,-0.0221,-0.0133,-0.0131,-0.013,-0.0074,-0.0074,-0.0074,-0.0074,0.0047,0.0051,0.0054,0,0,0,0,0,0,0,0,0,0,0,0,0,-0.0231,-0.0284,-0.0224,-0.0184,-0.018,-0.0133,-0.0131,-0.013,-0.0075,-0.0074,-0.0074,-0.0074,0.0046,0.005,0.0055,0.0078,0,0,0.0069,0.0071,0,0,0,0,0,0,0,0,-0.0234,-0.0229,-0.0191,-0.0187,-0.0182,-0.0116,-0.0108,-0.0059,-0.0075,-0.0113,-0.0074,-0.0074,-0.0005,0.0004,0.0022,0.0084,0.0089,0.0069,0.0072,0.0074,0.0075,0,0,0,0,0,0,0,-0.0238,-0.0232,-0.0186,-0.019,-0.0184,-0.0149,-0.0141,-0.0098,-0.006,-0.011,-0.0106,-0.0098,-0.0002,0.0017,0.0025,0.0091,0.0069,0.0073,0.0076,0.0078,0.0205,0.0206,0,0,0,0,0,0,-0.0255,-0.0236,-0.0189,-0.0184,-0.0209,-0.0148,-0.014,-0.0136,-0.0061,-0.005,-0.0098,-0.0096,0.0009,0.002,0.003,0.0075,0.0074,0.0078,0.0081,0.0205,0.0205,0.0206,0,0,0,0,0,0,-0.0257,-0.0252,-0.0193,-0.0208,-0.0198,-0.0148,-0.0144,-0.0135,-0.0116,-0.0053,-0.0041,-0.009,0.001,0.0023,0.0072,0.008,0.008,0.0085,0.0204,0.0205,0.0206,0.0158,0,0,0,0,0,0,-0.0259,-0.0254,-0.0259,-0.021,-0.0198,-0.0172,-0.0144,-0.0133,-0.0112,-0.0108,-0.0042,-0.003,0.0011,0.0065,0.0077,0.0086,0.0088,0.0203,0.0204,0.0205,0.0159,0.0157,0.0156,0,0,0,0,0,-0.0262,-0.0273,-0.0259,-0.0254,-0.0206,-0.0172,-0.0163,-0.0125,-0.0113,-0.0107,-0.0057,-0.0032,0.0081,0.0069,0.0083,0.0094,0.0203,0.0204,0.0205,0.016,0.0158,0.0156,0,0,0,0,0,0,-0.0303,-0.0267,-0.0251,-0.0251,-0.0217,-0.0163,-0.0158,-0.0131,-0.0087,-0.0084,-0.0024,-0.0008,0.0037,0.0073,0.0058,0.0135,0.0146,0.015,0.0106,0.0105,0.0103,0.0087,0.0092,0,0,0,0,0,-0.0315,-0.0314,-0.0269,-0.027,-0.0256,-0.0208,-0.0191,-0.0165,-0.012,-0.0101,-0.0052,0.0002,0.0054,0.0083,0.013,0.0171,0.0209,0.0188,0.0187,0.0185,0.0182,0.0251,0.0255,0.0211,0.0211,0.0211,0,0,-0.0331,-0.0312,-0.0311,-0.0278,-0.025,-0.0235,-0.0197,-0.0177,-0.0156,-0.0095,-0.0055,-0.0005,0.0063,0.0111,0.0135,0.0142,0.0217,0.0187,0.0185,0.0182,0.0253,0.0257,0.0261,0.0211,0.0211,0.0211,0,0,-0.0366,-0.0346,-0.0357,-0.0331,-0.0296,-0.0261,-0.0259,-0.0207,-0.0177,-0.0133,-0.008,-0.0024,0.0047,0.0105,0.0142,0.0161,0.0203,0.0172,0.0156,0.0224,0.0228,0.0232,0.0276,0.0284,0.0176,0.0175,0.0175,0,-0.0389,-0.0393,-0.0354,-0.0353,-0.0337,-0.0278,-0.0279,-0.0236,-0.0172,-0.0142,-0.0129,-0.0005,0.0048,0.0124,0.013,0.0158,0.0192,0.0155,0.0221,0.0225,0.023,0.0275,0.0285,0.0173,0.0174,0.0174,0.0174,0,-0.0426,-0.0427,-0.043,-0.0408,-0.0383,-0.0375,-0.0313,-0.028,-0.0237,-0.0187,-0.0111,-0.0031,0.0042,0.0072,0.0107,0.0172,0.0183,0.0206,0.022,0.0232,0.0278,0.0289,0.017,0.0171,0.0172,0.0172,0,0,-0.0483,-0.0463,-0.0464,-0.0465,-0.0413,-0.0398,-0.0357,-0.0298,-0.0266,-0.0193,-0.0144,-0.0045,-0.0001,0.0044,0.0104,0.0166,0.0228,0.0192,0.0197,0.0226,0.036,0.0395,0.0411,0.0261,0.0262,0.0264,0.0375,0,-0.0525,-0.055,-0.0515,-0.0522,-0.0527,-0.0455,-0.0421,-0.0356,-0.0287,-0.0222,-0.0121,-0.0057,-0.001,0.0022,0.0094,0.0199,0.0257,0.0195,0.0353,0.0358,0.038,0.0425,0.0485,0.0592,0.0386,0.0388,0.0389,0,-0.0573,-0.0583,-0.061,-0.0582,-0.0575,-0.0562,-0.0493,-0.0453,-0.0337,-0.0282,-0.019,-0.0113,-0.0004,0.0024,0.0207,0.0164,0.0249,0.0328,0.0335,0.0392,0.0414,0.0551,0.062,0.0769,0.0406,0.0405,0.0404,0,-0.0644,-0.0643,-0.0671,-0.0664,-0.0623,-0.0611,-0.0576,-0.0477,-0.0435,-0.0321,-0.0275,-0.0137,-0.0064,0.0068,0.0231,0.0218,0.0428,0.0434,0.0546,0.0548,0.0645,0.0653,0.0871,0.0552,0.0552,0.0552,0.0551,0,-0.0706,-0.0723,-0.0712,-0.0728,-0.0746,-0.0684,-0.0667,-0.0604,-0.0507,-0.0451,-0.0321,-0.0239,-0.005,0.0095,0.0227,0.043,0.043,0.0554,0.0591,0.0629,0.0634,0.0802,0.0836,0.0556,0.0555,0.0554,0.0553,0,-0.0781,-0.0774,-0.0806,-0.079,-0.0786,-0.08,-0.0745,-0.072,-0.0617,-0.0537,-0.0507,-0.0309,-0.0105,0.0087,0.0319,0.0432,0.071,0.0676,0.0696,0.0733,0.096,0.0987,0.1205,0.1288,0.0817,0.0818,0.082,0,-0.0821,-0.085,-0.0873,-0.0899,-0.0898,-0.09,-0.0892,-0.0796,-0.0751,-0.0568,-0.053,-0.0319,-0.0135,0.0221,0.0462,0.0712,0.0806,0.0884,0.0876,0.0999,0.1056,0.1068,0.1122,0.0982,0.0985,0.0987,0.0989,0,-0.0894,-0.0905,-0.0935,-0.1,-0.1018,-0.1019,-0.0991,-0.0974,-0.0836,-0.0721,-0.053,-0.0367,-0.0002,0.034,0.0653,0.0801,0.0997,0.0934,0.1082,0.1224,0.1234,0.1322,0.0859,0.1008,0.1006,0.1005,0.1004,0.1003,-0.0942,-0.0989,-0.1036,-0.109,-0.1114,-0.1119,-0.1106,-0.1028,-0.0927,-0.0708,-0.0549,-0.0214,0.0236,0.0714,0.0873,0.1234,0.1166,0.1343,0.1369,0.1373,0.1452,0.1012,0.1185,0.1184,0.1184,0.1183,0.1182,0,-0.0998,-0.1046,-0.1114,-0.117,-0.1206,-0.119,-0.1148,-0.1073,-0.0932,-0.0671,-0.043,0.0166,0.062,0.1017,0.1497,0.1673,0.1701,0.1755,0.1811,0.1848,0.1502,0.1509,0.1737,0.1737,0.1737,0.1737,0.1736,0.1736,-0.1026,-0.111,-0.1149,-0.123,-0.1259,-0.1251,-0.1217,-0.1055,-0.0839,-0.0383,0.0014,0.0319,0.0869,0.1614,0.2056,0.2086,0.2224,0.22,0.2259,0.2042,0.2006,0.1971,0.1992,0.2317,0.2318,0.2623,0.2626,0.2628]}],[{"header":{"parameterUnit":"m.s-1","parameterCategory":2,"la1":30.2991,"la2":30.254,"lo1":-89.0895,"lo2":-89.0444,"dy":0.0017,"dx":0.0017,"nx":28,"ny":28,"refTime":"2025-04-02T09:00:00:Z","depth":"2","parameterNumber":2,"parameterNumberName":"U-component_of_CURRENTS"},"data":[0,0,0,0,0,0,0,0,0,0,0,0,0,0,0,0,0,0,0,0,0,0,0,0,0,0,0,0,0,0,0,0,0,0,0,0,0,0,0,0,0,0,0,0,0,0,0,0,0,0,0,0,0,0,0,0,0,0,-0.2374,-0.2374,0,-0.239,-0.239,-0.239,-0.236,-0.2359,-0.2358,-0.2358,-0.2299,-0.2298,-0.2297,0,0,0,0,0,0,0,0,0,0,0,0,0,-0.2311,-0.2312,-0.2374,-0.2375,-0.2375,-0.239,-0.239,-0.239,-0.236,-0.2359,-0.2358,-0.2357,-0.2299,-0.2298,-0.2297,0,0,0,0,0,0,0,0,0,0,0,0,0,-0.2331,-0.2312,-0.2374,-0.2364,-0.2363,-0.239,-0.239,-0.239,-0.236,-0.2359,-0.2358,-0.2357,-0.23,-0.2298,-0.2297,-0.2311,0,0,-0.2293,-0.2292,0,0,0,0,0,0,0,0,-0.233,-0.2333,-0.2365,-0.2365,-0.2364,-0.2374,-0.2346,-0.2361,-0.236,-0.2358,-0.2358,-0.2356,-0.232,-0.2317,-0.2319,-0.2308,-0.2305,-0.2293,-0.2292,-0.2291,-0.2291,0,0,0,0,0,0,0,-0.2328,-0.2332,-0.2377,-0.2366,-0.2365,-0.2356,-0.2358,-0.2349,-0.2341,-0.2358,-0.2357,-0.2364,-0.2319,-0.2321,-0.2317,-0.2304,-0.2293,-0.2292,-0.2291,-0.229,-0.2323,-0.2324,0,0,0,0,0,0,-0.2334,-0.2331,-0.2377,-0.2378,-0.2347,-0.2359,-0.236,-0.237,-0.2343,-0.2339,-0.2365,-0.2362,-0.2323,-0.2319,-0.2315,-0.2343,-0.2291,-0.229,-0.2289,-0.2321,-0.2323,-0.2325,0,0,0,0,0,0,-0.2333,-0.2338,-0.2376,-0.2357,-0.2361,-0.2361,-0.2372,-0.2371,-0.2371,-0.2349,-0.2343,-0.2367,-0.2322,-0.2317,-0.2319,-0.234,-0.229,-0.2288,-0.2319,-0.2322,-0.2324,-0.239,0,0,0,0,0,0,-0.2331,-0.2338,-0.2343,-0.2357,-0.2363,-0.24,-0.2374,-0.2372,-0.2379,-0.2376,-0.2349,-0.2343,-0.2321,-0.2321,-0.2318,-0.2337,-0.2287,-0.2317,-0.232,-0.2323,-0.2385,-0.2394,-0.2402,0,0,0,0,0,-0.2329,-0.2345,-0.2343,-0.2348,-0.2371,-0.2402,-0.2404,-0.2397,-0.238,-0.2391,-0.2375,-0.2344,-0.2338,-0.2322,-0.2317,-0.2336,-0.2315,-0.2319,-0.2323,-0.2382,-0.2392,-0.2401,0,0,0,0,0,0,-0.2317,-0.2344,-0.2342,-0.2364,-0.2384,-0.2398,-0.2406,-0.2403,-0.24,-0.2391,-0.2362,-0.2356,-0.2367,-0.2348,-0.233,-0.2358,-0.2323,-0.2326,-0.2369,-0.2379,-0.2387,-0.2385,-0.2286,0,0,0,0,0,-0.232,-0.2336,-0.2363,-0.2378,-0.2391,-0.2398,-0.2407,-0.2409,-0.2412,-0.2409,-0.2394,-0.2381,-0.2382,-0.2376,-0.2372,-0.2383,-0.2349,-0.2395,-0.2403,-0.241,-0.2408,-0.2382,-0.2387,-0.2337,-0.2337,-0.2337,0,0,-0.2317,-0.2334,-0.2342,-0.2376,-0.2387,-0.2419,-0.24,-0.2422,-0.2444,-0.2403,-0.2418,-0.2408,-0.2393,-0.241,-0.2413,-0.2393,-0.2409,-0.2415,-0.2421,-0.2414,-0.2387,-0.2391,-0.2395,-0.234,-0.2339,-0.2339,0,0,-0.2329,-0.234,-0.2362,-0.2388,-0.2418,-0.243,-0.244,-0.2462,-0.2465,-0.2486,-0.2466,-0.2468,-0.2466,-0.2462,-0.2458,-0.2509,-0.2455,-0.2512,-0.2545,-0.2521,-0.2524,-0.2526,-0.2493,-0.2492,-0.2512,-0.2512,-0.2513,0,-0.2323,-0.2356,-0.2373,-0.2408,-0.2429,-0.2439,-0.2472,-0.2489,-0.2507,-0.251,-0.2498,-0.2502,-0.249,-0.2507,-0.2531,-0.2525,-0.2498,-0.2507,-0.2529,-0.2531,-0.2532,-0.2497,-0.2495,-0.2516,-0.2516,-0.2515,-0.2515,0,-0.2358,-0.2386,-0.2404,-0.245,-0.2478,-0.2508,-0.2541,-0.256,-0.2562,-0.257,-0.2585,-0.2575,-0.257,-0.258,-0.2571,-0.2585,-0.2559,-0.2543,-0.2499,-0.2541,-0.2502,-0.2498,-0.2521,-0.252,-0.2519,-0.2518,0,0,-0.2331,-0.2412,-0.2415,-0.2442,-0.2502,-0.2524,-0.2571,-0.2607,-0.2619,-0.2637,-0.2646,-0.2664,-0.2646,-0.2643,-0.2631,-0.262,-0.2614,-0.2592,-0.2589,-0.2549,-0.2552,-0.2496,-0.2486,-0.2599,-0.2599,-0.2599,-0.2522,0,-0.2347,-0.2411,-0.2453,-0.2507,-0.2541,-0.2577,-0.2616,-0.2649,-0.2663,-0.2677,-0.2674,-0.2679,-0.2675,-0.2668,-0.2662,-0.2625,-0.2608,-0.2636,-0.2526,-0.2522,-0.2459,-0.2481,-0.2305,-0.2218,-0.2518,-0.2517,-0.2517,0,-0.2359,-0.2401,-0.246,-0.2529,-0.2546,-0.2582,-0.2626,-0.2664,-0.2696,-0.2705,-0.2714,-0.2705,-0.2707,-0.2688,-0.2642,-0.2659,-0.2614,-0.2581,-0.2577,-0.2496,-0.2459,-0.2226,-0.22,-0.251,-0.2511,-0.2511,-0.2512,0,-0.2314,-0.24,-0.2441,-0.2468,-0.2553,-0.2577,-0.2615,-0.2661,-0.2683,-0.2713,-0.2716,-0.272,-0.27,-0.2667,-0.2612,-0.2624,-0.2541,-0.2541,-0.2446,-0.2441,-0.2253,-0.2232,-0.2497,-0.2497,-0.2497,-0.2498,-0.2498,0,-0.2307,-0.2335,-0.2421,-0.2442,-0.2477,-0.2549,-0.258,-0.262,-0.2666,-0.2678,-0.2716,-0.2709,-0.2691,-0.2647,-0.2608,-0.2509,-0.2531,-0.2448,-0.2417,-0.2274,-0.2256,-0.248,-0.2479,-0.2495,-0.2495,-0.2496,-0.2496,0,-0.2243,-0.2308,-0.235,-0.2434,-0.2457,-0.2476,-0.2553,-0.257,-0.263,-0.2644,-0.2652,-0.2682,-0.2628,-0.2593,-0.252,-0.2479,-0.2406,-0.2361,-0.2194,-0.2146,-0.2325,-0.2329,-0.2255,-0.2253,-0.225,-0.2249,-0.2247,0,-0.2215,-0.2232,-0.2313,-0.2327,-0.2362,-0.2408,-0.2436,-0.2528,-0.255,-0.2615,-0.2607,-0.2588,-0.2535,-0.2424,-0.2343,-0.2243,-0.2318,-0.2041,-0.2042,-0.2322,-0.23,-0.2308,-0.2314,-0.1815,-0.181,-0.1806,-0.1803,0,-0.2139,-0.2166,-0.2195,-0.2231,-0.2263,-0.2298,-0.235,-0.2367,-0.2463,-0.2476,-0.2474,-0.2441,-0.2355,-0.2175,-0.2069,-0.1999,-0.2052,-0.1957,-0.2261,-0.1922,-0.1906,-0.1886,-0.1906,-0.1766,-0.177,-0.1773,-0.1775,-0.1776,-0.2056,-0.205,-0.2086,-0.2105,-0.214,-0.2153,-0.2135,-0.2194,-0.2204,-0.2175,-0.2264,-0.2137,-0.2105,-0.1841,-0.175,-0.1683,-0.1825,-0.1745,-0.1757,-0.1774,-0.1756,-0.1738,-0.1563,-0.1565,-0.1567,-0.1569,-0.1571,0,-0.1933,-0.1942,-0.1957,-0.197,-0.1943,-0.2016,-0.204,-0.1973,-0.1922,-0.1927,-0.1884,-0.1648,-0.1542,-0.1516,-0.1359,-0.1347,-0.1333,-0.1295,-0.1274,-0.131,-0.1342,-0.1303,-0.0989,-0.0987,-0.0986,-0.0984,0,0,-0.1868,-0.183,-0.1838,-0.1755,-0.1762,-0.1671,-0.1648,-0.1568,-0.1523,-0.1384,-0.1314,-0.1409,-0.1442,-0.1198,-0.1161,-0.1047,-0.1161,-0.0994,-0.1457,-0.1465,-0.1495,-0.1596,-0.1575,0,0,0,0,0]},{"header":{"parameterUnit":"m.s-1","parameterCategory":2,"la1":30.2991,"la2":30.254,"lo1":-89.0895,"lo2":-89.0444,"dy":0.0017,"dx":0.0017,"nx":28,"ny":28,"refTime":"2025-04-02T09:00:00:Z","depth":"2","parameterNumber":3,"parameterNumberName":"V-component_of_CURRENTS"},"data":[0,0,0,0,0,0,0,0,0,0,0,0,0,0,0,0,0,0,0,0,0,0,0,0,0,0,0,0,0,0,0,0,0,0,0,0,0,0,0,0,0,0,0,0,0,0,0,0,0,0,0,0,0,0,0,0,0,0,-0.0276,-0.0276,0,-0.019,-0.0189,-0.0188,-0.0133,-0.0132,-0.0132,-0.0132,-0.0014,-0.0012,-0.0009,0,0,0,0,0,0,0,0,0,0,0,0,0,-0.0335,-0.0334,-0.0277,-0.0276,-0.0275,-0.019,-0.0189,-0.0187,-0.0133,-0.0132,-0.0132,-0.0132,-0.0015,-0.0012,-0.0008,0,0,0,0,0,0,0,0,0,0,0,0,0,-0.0284,-0.0334,-0.0277,-0.0238,-0.0234,-0.019,-0.0189,-0.0187,-0.0133,-0.0132,-0.0132,-0.0132,-0.0017,-0.0012,-0.0008,0.0013,0,0,0.0005,0.0007,0,0,0,0,0,0,0,0,-0.0287,-0.0282,-0.0245,-0.024,-0.0236,-0.0173,-0.0166,-0.0119,-0.0133,-0.017,-0.0132,-0.0132,-0.0065,-0.0057,-0.004,0.0018,0.0023,0.0006,0.0008,0.001,0.0012,0,0,0,0,0,0,0,-0.0291,-0.0285,-0.0241,-0.0244,-0.0238,-0.0204,-0.0197,-0.0157,-0.0119,-0.0167,-0.0163,-0.0155,-0.0063,-0.0045,-0.0037,0.0025,0.0006,0.001,0.0012,0.0014,0.0132,0.0132,0,0,0,0,0,0,-0.0307,-0.0289,-0.0244,-0.0238,-0.0262,-0.0204,-0.0196,-0.0192,-0.012,-0.0109,-0.0155,-0.0153,-0.0052,-0.0042,-0.0033,0.0008,0.001,0.0014,0.0017,0.0131,0.0132,0.0132,0,0,0,0,0,0,-0.0309,-0.0304,-0.0247,-0.0262,-0.0253,-0.0204,-0.02,-0.0191,-0.0173,-0.0112,-0.01,-0.0147,-0.0052,-0.0039,0.0007,0.0013,0.0016,0.002,0.0131,0.0132,0.0132,0.0083,0,0,0,0,0,0,-0.0311,-0.0306,-0.031,-0.0264,-0.0253,-0.0228,-0.02,-0.0189,-0.0169,-0.0165,-0.0101,-0.009,-0.005,0.0,0.0011,0.0019,0.0024,0.013,0.0131,0.0132,0.0084,0.0082,0.008,0,0,0,0,0,-0.0314,-0.0324,-0.0311,-0.0305,-0.026,-0.0229,-0.022,-0.0183,-0.017,-0.0165,-0.0117,-0.0092,0.0014,0.0004,0.0017,0.0026,0.013,0.0131,0.0132,0.0085,0.0082,0.008,0,0,0,0,0,0,-0.0353,-0.0318,-0.0303,-0.0303,-0.0271,-0.022,-0.0215,-0.0189,-0.0147,-0.0144,-0.0085,-0.007,-0.0029,0.0006,-0.0007,0.0064,0.0076,0.008,0.0036,0.0034,0.0032,0.0016,0.0028,0,0,0,0,0,-0.0365,-0.0364,-0.0321,-0.0322,-0.031,-0.0264,-0.0247,-0.0222,-0.0179,-0.0161,-0.0114,-0.0062,-0.0014,0.0014,0.0058,0.0096,0.0134,0.0111,0.0109,0.0108,0.0105,0.0173,0.0176,0.0136,0.0136,0.0136,0,0,-0.0381,-0.0362,-0.0361,-0.0331,-0.0304,-0.0291,-0.0253,-0.0234,-0.0216,-0.0155,-0.0118,-0.007,-0.0006,0.0038,0.006,0.0068,0.0138,0.0109,0.0107,0.0105,0.0174,0.0178,0.0181,0.0137,0.0137,0.0137,0,0,-0.0416,-0.0396,-0.0407,-0.0384,-0.0351,-0.0317,-0.0315,-0.0266,-0.0237,-0.0197,-0.0145,-0.0093,-0.0025,0.0029,0.0063,0.0078,0.0122,0.009,0.0073,0.0139,0.0142,0.0146,0.0191,0.0199,0.0093,0.0093,0.0093,0,-0.0437,-0.0443,-0.0405,-0.0406,-0.0392,-0.0334,-0.0337,-0.0297,-0.0237,-0.0208,-0.0194,-0.0077,-0.0027,0.0043,0.0048,0.0074,0.011,0.0073,0.0135,0.014,0.0144,0.019,0.0199,0.009,0.0091,0.0091,0.0091,0,-0.0477,-0.0478,-0.0483,-0.0464,-0.0441,-0.0435,-0.0376,-0.0345,-0.0304,-0.0255,-0.0184,-0.0108,-0.0038,-0.0011,0.0023,0.0084,0.0098,0.012,0.0136,0.0145,0.0192,0.0203,0.0087,0.0088,0.0089,0.0089,0,0,-0.0532,-0.0516,-0.0517,-0.0519,-0.0472,-0.0458,-0.0422,-0.0368,-0.0338,-0.0268,-0.0221,-0.013,-0.0084,-0.0042,0.0016,0.0076,0.0137,0.0105,0.0109,0.014,0.0269,0.03,0.0315,0.017,0.0171,0.0173,0.0285,0,-0.0576,-0.0604,-0.0571,-0.0581,-0.0588,-0.0519,-0.0489,-0.0428,-0.0362,-0.0299,-0.0202,-0.0141,-0.0096,-0.0063,0.0006,0.0109,0.0165,0.0104,0.0264,0.0268,0.0288,0.0329,0.0272,0.0369,0.0296,0.0297,0.0299,0,-0.0625,-0.0636,-0.0666,-0.0642,-0.0636,-0.0625,-0.0561,-0.0524,-0.0414,-0.0359,-0.0271,-0.0196,-0.009,-0.0062,0.0116,0.0074,0.0159,0.0237,0.0244,0.0298,0.0321,0.0352,0.0392,0.0318,0.0316,0.0315,0.0313,0,-0.0694,-0.0696,-0.0726,-0.072,-0.0684,-0.0673,-0.0642,-0.0548,-0.0508,-0.0397,-0.0352,-0.0219,-0.0147,-0.0017,0.0142,0.013,0.0336,0.0342,0.045,0.0452,0.0448,0.0448,0.0457,0.0457,0.0457,0.0457,0.0456,0,-0.0756,-0.0774,-0.0765,-0.0782,-0.0801,-0.0743,-0.0728,-0.0669,-0.0576,-0.0521,-0.0395,-0.0316,-0.0132,0.0011,0.014,0.0338,0.0339,0.0457,0.0493,0.0429,0.0426,0.0416,0.0409,0.0461,0.046,0.0459,0.0458,0,-0.0828,-0.0823,-0.0857,-0.0843,-0.084,-0.0854,-0.0803,-0.0779,-0.068,-0.0603,-0.0573,-0.0381,-0.0182,0.0006,0.0233,0.034,0.0517,0.0579,0.0483,0.0507,0.0583,0.0573,0.071,0.0712,0.0714,0.0716,0.0717,0,-0.0868,-0.0897,-0.0921,-0.0947,-0.0946,-0.0949,-0.0943,-0.0851,-0.0808,-0.0631,-0.0594,-0.0389,-0.0213,0.0134,0.0348,0.0587,0.0586,0.066,0.0633,0.0592,0.0614,0.06,0.0588,0.0602,0.0603,0.0603,0.0603,0,-0.0939,-0.0949,-0.098,-0.1044,-0.1061,-0.1064,-0.1038,-0.1022,-0.089,-0.078,-0.0596,-0.044,-0.0104,0.0162,0.0459,0.0586,0.0618,0.0674,0.0681,0.0547,0.0501,0.0518,0.0508,0.0605,0.0605,0.0605,0.0605,0.0605,-0.0984,-0.103,-0.1077,-0.113,-0.1154,-0.116,-0.1149,-0.1076,-0.0981,-0.0783,-0.0629,-0.0348,-0.0117,0.0327,0.0513,0.0682,0.0694,0.072,0.0715,0.0711,0.0678,0.0638,0.0761,0.0762,0.0762,0.0763,0.0763,0,-0.1038,-0.1085,-0.1152,-0.1207,-0.1243,-0.1229,-0.119,-0.1127,-0.0997,-0.0787,-0.0568,-0.027,0.0041,0.0291,0.0558,0.0718,0.0685,0.0733,0.0646,0.0643,0.0641,0.06,0.0666,0.0666,0.0666,0.0666,0,0,-0.1065,-0.1146,-0.1184,-0.1263,-0.1294,-0.1289,-0.1258,-0.1127,-0.096,-0.0732,-0.0509,-0.0234,0.0068,0.0231,0.0416,0.055,0.0551,0.0556,0.0615,0.0486,0.0481,0.0616,0.055,0,0,0,0,0]}],[{"header":{"parameterUnit":"m.s-1","parameterCategory":2,"la1":30.2991,"la2":30.254,"lo1":-89.0895,"lo2":-89.0444,"dy":0.0017,"dx":0.0017,"nx":28,"ny":28,"refTime":"2025-04-02T09:00:00:Z","depth":"4","parameterNumber":2,"parameterNumberName":"U-component_of_CURRENTS"},"data":[0,0,0,0,0,0,0,0,0,0,0,0,0,0,0,0,0,0,0,0,0,0,0,0,0,0,0,0,0,0,0,0,0,0,0,0,0,0,0,0,0,0,0,0,0,0,0,0,0,0,0,0,0,0,0,0,0,0,-0.1571,-0.1572,0,-0.1621,-0.1621,-0.1622,-0.1652,-0.1652,-0.1653,-0.1653,-0.167,-0.167,-0.167,0,0,0,0,0,0,0,0,0,0,0,0,0,-0.149,-0.1491,-0.1571,-0.1572,-0.1573,-0.1621,-0.1621,-0.1622,-0.1652,-0.1652,-0.1653,-0.1653,-0.167,-0.167,-0.167,0,0,0,0,0,0,0,0,0,0,0,0,0,-0.1529,-0.1491,-0.1571,-0.1595,-0.1598,-0.1621,-0.1621,-0.1622,-0.1652,-0.1652,-0.1653,-0.1653,-0.167,-0.167,-0.167,-0.1661,0,0,-0.1671,-0.1671,0,0,0,0,0,0,0,0,-0.1526,-0.1531,-0.1591,-0.1593,-0.1597,-0.1633,-0.1599,-0.1634,-0.1652,-0.1629,-0.1653,-0.1654,-0.1655,-0.1657,-0.1663,-0.1662,-0.1663,-0.1671,-0.1671,-0.1671,-0.1671,0,0,0,0,0,0,0,-0.1524,-0.1529,-0.1589,-0.1592,-0.1595,-0.1599,-0.1605,-0.1606,-0.1637,-0.1631,-0.1634,-0.1643,-0.1657,-0.1662,-0.1663,-0.1663,-0.1671,-0.1671,-0.1671,-0.1671,-0.1737,-0.1738,0,0,0,0,0,0,-0.1522,-0.1527,-0.1587,-0.159,-0.1565,-0.1601,-0.1607,-0.1619,-0.1637,-0.1642,-0.1642,-0.1644,-0.1662,-0.1663,-0.1664,-0.1729,-0.1671,-0.1671,-0.1672,-0.1735,-0.1737,-0.1739,0,0,0,0,0,0,-0.152,-0.1527,-0.1585,-0.1561,-0.1569,-0.1602,-0.1614,-0.162,-0.1653,-0.1647,-0.165,-0.1674,-0.1662,-0.1664,-0.1696,-0.1727,-0.1672,-0.1672,-0.1733,-0.1736,-0.1738,-0.181,0,0,0,0,0,0,-0.1518,-0.1526,-0.1545,-0.1561,-0.1571,-0.162,-0.1614,-0.162,-0.1657,-0.166,-0.1674,-0.1675,-0.1663,-0.1696,-0.1696,-0.1726,-0.1672,-0.1731,-0.1734,-0.1737,-0.1806,-0.1815,-0.1823,0,0,0,0,0,-0.1515,-0.1536,-0.1546,-0.1554,-0.1592,-0.1621,-0.1627,-0.1649,-0.1658,-0.168,-0.1694,-0.1676,-0.1715,-0.1697,-0.1697,-0.1728,-0.173,-0.1733,-0.1737,-0.1802,-0.1813,-0.1822,0,0,0,0,0,0,-0.1512,-0.1542,-0.1553,-0.1584,-0.1611,-0.1628,-0.1653,-0.1666,-0.1694,-0.1704,-0.1695,-0.1697,-0.1736,-0.1724,-0.1705,-0.1757,-0.172,-0.1723,-0.1769,-0.1779,-0.1788,-0.1782,-0.1672,0,0,0,0,0,-0.1519,-0.1545,-0.1572,-0.1599,-0.1616,-0.1639,-0.1659,-0.1676,-0.1697,-0.1712,-0.1724,-0.1735,-0.1746,-0.1758,-0.1764,-0.1792,-0.1763,-0.1812,-0.1821,-0.1828,-0.1824,-0.1812,-0.1818,-0.1751,-0.1751,-0.1751,0,0,-0.1525,-0.1546,-0.1561,-0.16,-0.1623,-0.1655,-0.1653,-0.1693,-0.1724,-0.1707,-0.176,-0.1766,-0.1761,-0.1795,-0.1811,-0.1792,-0.1834,-0.1833,-0.1839,-0.1831,-0.1816,-0.1822,-0.1828,-0.1753,-0.1753,-0.1752,0,0,-0.1541,-0.1571,-0.1596,-0.1625,-0.1668,-0.1684,-0.1703,-0.1741,-0.1766,-0.1811,-0.1808,-0.1833,-0.1857,-0.1859,-0.1859,-0.1917,-0.1879,-0.1928,-0.1966,-0.1955,-0.196,-0.1964,-0.1941,-0.1942,-0.1933,-0.1933,-0.1933,0,-0.1549,-0.1582,-0.1609,-0.1642,-0.167,-0.1701,-0.1736,-0.1766,-0.1812,-0.1831,-0.184,-0.1881,-0.1882,-0.1908,-0.1936,-0.1934,-0.1919,-0.1928,-0.1964,-0.1968,-0.197,-0.1946,-0.1946,-0.1937,-0.1936,-0.1936,-0.1935,0,-0.1575,-0.1615,-0.1636,-0.1686,-0.1721,-0.1758,-0.1801,-0.1843,-0.1877,-0.1898,-0.1947,-0.1955,-0.1974,-0.1987,-0.1982,-0.2011,-0.1991,-0.1975,-0.1935,-0.1981,-0.1953,-0.1952,-0.1942,-0.1941,-0.194,-0.1939,0,0,-0.1549,-0.1636,-0.1645,-0.1678,-0.1749,-0.1775,-0.1837,-0.1887,-0.1921,-0.1971,-0.2006,-0.2042,-0.2049,-0.205,-0.2051,-0.205,-0.2065,-0.2032,-0.203,-0.2003,-0.2037,-0.191,-0.1896,-0.206,-0.206,-0.206,-0.2011,0,-0.1561,-0.1624,-0.1669,-0.1735,-0.177,-0.1826,-0.1877,-0.1929,-0.1971,-0.2015,-0.2035,-0.2069,-0.2072,-0.2088,-0.2093,-0.2072,-0.2066,-0.2079,-0.2001,-0.1999,-0.1874,-0.1891,-0.2061,-0.201,-0.2009,-0.2009,-0.2009,0,-0.1559,-0.1606,-0.1672,-0.1757,-0.1779,-0.1829,-0.1905,-0.1956,-0.202,-0.2053,-0.2092,-0.2105,-0.2131,-0.212,-0.2104,-0.2116,-0.2086,-0.2062,-0.2059,-0.1909,-0.1869,-0.1953,-0.2007,-0.2007,-0.2007,-0.2007,-0.2007,0,-0.1505,-0.1601,-0.1655,-0.1686,-0.1789,-0.1836,-0.1893,-0.1968,-0.2007,-0.2078,-0.2102,-0.2134,-0.2145,-0.2128,-0.2094,-0.2105,-0.2051,-0.2053,-0.1904,-0.1895,-0.1993,-0.1989,-0.2026,-0.2026,-0.2026,-0.2026,-0.2026,0,-0.1476,-0.1521,-0.1641,-0.1669,-0.1732,-0.1819,-0.1885,-0.1944,-0.2023,-0.2049,-0.2118,-0.2124,-0.2148,-0.2123,-0.2095,-0.1985,-0.2048,-0.1901,-0.187,-0.2026,-0.2027,-0.1992,-0.1989,-0.2024,-0.2025,-0.2025,-0.2025,0,-0.1397,-0.1481,-0.1545,-0.1667,-0.1709,-0.1754,-0.1876,-0.191,-0.2003,-0.2038,-0.2061,-0.2116,-0.208,-0.2071,-0.2025,-0.1958,-0.1884,-0.1827,-0.1986,-0.1966,-0.1739,-0.174,-0.166,-0.1655,-0.165,-0.1647,-0.1644,0,-0.1357,-0.1386,-0.1521,-0.1558,-0.162,-0.1707,-0.1758,-0.1882,-0.1913,-0.2006,-0.1999,-0.2011,-0.2022,-0.1845,-0.1869,-0.1783,-0.1761,-0.1715,-0.1738,-0.1721,-0.17,-0.1708,-0.1715,-0.1637,-0.1636,-0.1635,-0.1634,0,-0.1269,-0.1332,-0.1384,-0.1464,-0.1534,-0.1596,-0.1681,-0.169,-0.1808,-0.1913,-0.1871,-0.1839,-0.1788,-0.1745,-0.1679,-0.1629,-0.1746,-0.1671,-0.168,-0.1701,-0.1693,-0.1678,-0.169,-0.1619,-0.1621,-0.1623,-0.1623,0,-0.1197,-0.1209,-0.1287,-0.1339,-0.142,-0.1443,-0.1515,-0.1547,-0.1595,-0.1708,-0.1687,-0.1705,-0.1762,-0.1663,-0.1611,-0.1541,-0.1524,-0.1477,-0.1496,-0.1512,-0.1487,-0.1457,-0.127,0,0,0,0,0,-0.1111,-0.1109,-0.1152,-0.1204,-0.1278,-0.132,-0.1434,-0.151,-0.1629,-0.1549,-0.1614,-0.1562,-0.1491,-0.1512,-0.1403,-0.1543,-0.1528,-0.1412,-0.1485,-0.1538,-0.1555,-0.1538,0,0,0,0,0,0,-0.1054,-0.1085,-0.1101,-0.107,-0.1075,-0.1141,-0.1203,-0.1297,-0.1269,-0.1392,-0.1356,-0.1454,-0.1402,-0.1503,-0.136,-0.1364,-0.1376,-0.1441,-0.1437,-0.1528,-0.1543,-0.1557,-0.1546,0,0,0,0,0]},{"header":{"parameterUnit":"m.s-1","parameterCategory":2,"la1":30.2991,"la2":30.254,"lo1":-89.0895,"lo2":-89.0444,"dy":0.0017,"dx":0.0017,"nx":28,"ny":28,"refTime":"2025-04-02T09:00:00:Z","depth":"4","parameterNumber":3,"parameterNumberName":"V-component_of_CURRENTS"},"data":[0,0,0,0,0,0,0,0,0,0,0,0,0,0,0,0,0,0,0,0,0,0,0,0,0,0,0,0,0,0,0,0,0,0,0,0,0,0,0,0,0,0,0,0,0,0,0,0,0,0,0,0,0,0,0,0,0,0,-0.024,-0.024,0,-0.0187,-0.0186,-0.0185,-0.015,-0.015,-0.015,-0.015,-0.0067,-0.0065,-0.0063,0,0,0,0,0,0,0,0,0,0,0,0,0,-0.0274,-0.0273,-0.024,-0.024,-0.0239,-0.0187,-0.0186,-0.0185,-0.015,-0.015,-0.015,-0.015,-0.0068,-0.0065,-0.0063,0,0,0,0,0,0,0,0,0,0,0,0,0,-0.0243,-0.0273,-0.024,-0.0216,-0.0213,-0.0187,-0.0186,-0.0185,-0.015,-0.015,-0.015,-0.015,-0.0069,-0.0066,-0.0062,-0.0048,0,0,-0.0053,-0.0052,0,0,0,0,0,0,0,0,-0.0245,-0.0242,-0.022,-0.0218,-0.0215,-0.0176,-0.0168,-0.0138,-0.015,-0.0173,-0.015,-0.0149,-0.0101,-0.0096,-0.0085,-0.0044,-0.0041,-0.0053,-0.0051,-0.005,-0.0049,0,0,0,0,0,0,0,-0.0247,-0.0243,-0.0218,-0.022,-0.0216,-0.0195,-0.019,-0.0162,-0.0138,-0.0171,-0.0169,-0.0164,-0.01,-0.0088,-0.0083,-0.0039,-0.0053,-0.005,-0.0048,-0.0047,0.0025,0.0025,0,0,0,0,0,0,-0.0258,-0.0246,-0.022,-0.0217,-0.023,-0.0194,-0.0189,-0.0188,-0.0139,-0.0132,-0.0165,-0.0163,-0.0094,-0.0087,-0.008,-0.0062,-0.005,-0.0047,-0.0045,0.0025,0.0025,0.0025,0,0,0,0,0,0,-0.0258,-0.0256,-0.0222,-0.023,-0.0225,-0.0194,-0.0192,-0.0187,-0.0178,-0.0134,-0.0126,-0.0163,-0.0093,-0.0084,-0.0056,-0.0059,-0.0045,-0.0043,0.0025,0.0025,0.0025,-0.0025,0,0,0,0,0,0,-0.026,-0.0257,-0.0262,-0.0231,-0.0225,-0.0215,-0.0193,-0.0186,-0.0176,-0.0174,-0.013,-0.0122,-0.0092,-0.0061,-0.0053,-0.0054,-0.004,0.0025,0.0025,0.0025,-0.0024,-0.0027,-0.003,0,0,0,0,0,-0.0261,-0.0272,-0.0263,-0.026,-0.0233,-0.0215,-0.021,-0.0187,-0.0177,-0.0177,-0.0144,-0.0123,-0.0055,-0.0059,-0.0049,-0.0049,0.0025,0.0025,0.0025,-0.0022,-0.0026,-0.0029,0,0,0,0,0,0,-0.0289,-0.0268,-0.0258,-0.0262,-0.0244,-0.021,-0.021,-0.0192,-0.0167,-0.0166,-0.0122,-0.0112,-0.0089,-0.0061,-0.0067,-0.0028,-0.0011,-0.0009,-0.0051,-0.0054,-0.0057,-0.0067,-0.0038,0,0,0,0,0,-0.0298,-0.0302,-0.0275,-0.0279,-0.0273,-0.0243,-0.0234,-0.0218,-0.0191,-0.018,-0.0147,-0.0112,-0.0081,-0.0062,-0.0033,-0.0011,0.0025,-0.0004,-0.0007,-0.001,-0.0012,0.0045,0.0047,0.0026,0.0026,0.0026,0,0,-0.031,-0.03,-0.0302,-0.0286,-0.027,-0.0268,-0.0237,-0.023,-0.0224,-0.0174,-0.0159,-0.0123,-0.0078,-0.0054,-0.0041,-0.0031,0.0014,-0.001,-0.0013,-0.0013,0.0045,0.0048,0.0049,0.0026,0.0026,0.0026,0,0,-0.034,-0.0328,-0.0342,-0.033,-0.0313,-0.0292,-0.0293,-0.0263,-0.0246,-0.0226,-0.0187,-0.0153,-0.011,-0.0073,-0.005,-0.005,-0.0006,-0.0042,-0.0062,-0.0007,-0.0005,-0.0003,0.0039,0.0046,-0.0041,-0.0041,-0.0041,0,-0.0357,-0.0369,-0.0343,-0.0352,-0.0347,-0.0308,-0.0319,-0.0295,-0.0259,-0.0241,-0.023,-0.0151,-0.0118,-0.0074,-0.0076,-0.0057,-0.0022,-0.0055,-0.0012,-0.0008,-0.0005,0.0038,0.0046,-0.0043,-0.0043,-0.0043,-0.0042,0,-0.0395,-0.0404,-0.0411,-0.0409,-0.0398,-0.0402,-0.0367,-0.0351,-0.0325,-0.0293,-0.0248,-0.0194,-0.0145,-0.0129,-0.0104,-0.0063,-0.0045,-0.0026,-0.0005,-0.0006,0.0039,0.0048,-0.0047,-0.0046,-0.0045,-0.0044,0,0,-0.0433,-0.0439,-0.0442,-0.045,-0.0429,-0.0425,-0.0413,-0.0384,-0.0368,-0.0323,-0.0292,-0.0236,-0.0197,-0.0168,-0.0124,-0.0076,-0.0028,-0.0047,-0.0043,-0.001,0.0088,0.0069,0.0078,0.0001,0.0003,0.0004,0.0108,0,-0.0472,-0.0509,-0.0493,-0.0517,-0.053,-0.0488,-0.0479,-0.0444,-0.04,-0.0358,-0.0287,-0.0246,-0.0214,-0.0188,-0.0136,-0.005,-0.0005,-0.0058,0.0089,0.0093,0.0073,0.0088,0.0008,0.0115,0.0117,0.0119,0.012,0,-0.0513,-0.0532,-0.0572,-0.0571,-0.0571,-0.0577,-0.0544,-0.0527,-0.0454,-0.0415,-0.0351,-0.0292,-0.0214,-0.0189,-0.0045,-0.008,-0.0007,0.0058,0.0064,0.0071,0.0091,0.012,0.0137,0.0136,0.0134,0.0133,0.0132,0,-0.0557,-0.0581,-0.0617,-0.062,-0.0614,-0.0619,-0.0608,-0.0551,-0.0528,-0.0449,-0.0414,-0.0313,-0.0253,-0.0148,-0.0018,-0.0029,0.0144,0.015,0.0202,0.0202,0.0209,0.0206,0.0245,0.0245,0.0244,0.0244,0.0244,0,-0.0598,-0.0625,-0.0647,-0.0666,-0.0699,-0.0671,-0.0677,-0.0642,-0.0582,-0.0544,-0.0451,-0.0389,-0.0239,-0.0121,-0.0016,0.0124,0.015,0.0201,0.023,0.0185,0.0177,0.0216,0.0211,0.0248,0.0247,0.0246,0.0246,0,-0.0635,-0.0652,-0.0696,-0.0716,-0.0726,-0.0748,-0.0737,-0.0726,-0.0662,-0.0607,-0.0584,-0.0436,-0.0281,-0.0128,0.0059,0.0125,0.026,0.0301,0.024,0.0263,0.0278,0.0269,0.0363,0.0363,0.0363,0.0364,0.0364,0,-0.0656,-0.0687,-0.0743,-0.0777,-0.0793,-0.0819,-0.0829,-0.0779,-0.0751,-0.0628,-0.0595,-0.044,-0.0331,-0.0067,0.0076,0.0276,0.0295,0.035,0.0308,0.0273,0.0292,0.0283,0.0274,0.0364,0.0364,0.0364,0.0364,0,-0.0689,-0.0718,-0.0754,-0.0832,-0.0869,-0.0891,-0.0892,-0.0878,-0.0795,-0.0742,-0.0582,-0.0436,-0.0256,-0.0064,0.0094,0.0233,0.0306,0.0352,0.0352,0.0314,0.0275,0.0292,0.0283,0.0365,0.0365,0.0365,0.0365,0,-0.071,-0.0748,-0.0807,-0.0866,-0.092,-0.0937,-0.0937,-0.0877,-0.0832,-0.0684,-0.0634,-0.0424,-0.0296,-0.0085,0.0063,0.0196,0.0214,0.0231,0.0238,0.0238,0.0162,0.0093,0.0155,0,0,0,0,0,-0.0719,-0.0763,-0.0831,-0.0891,-0.0946,-0.0966,-0.096,-0.0939,-0.0865,-0.0756,-0.0686,-0.051,-0.0261,-0.0141,-0.0011,0.0032,0.0208,0.0183,0.0223,0.037,0.0369,0.0297,0,0,0,0,0,0,-0.0726,-0.0794,-0.0829,-0.0894,-0.0936,-0.0975,-0.0972,-0.0926,-0.0846,-0.0754,-0.061,-0.0506,-0.026,-0.0331,-0.0014,0.0028,0.0062,0.0313,0.0314,0.037,0.0369,0.0369,0.0295,0,0,0,0,0]}]]